This is the latest recevied weather packets stored in our database for station/object KJ6APE. If no packets are shown the sender has not sent any weather packets the latest 1 day(s).
| Time | Temp. | Humidity | Pressure | Rain* | Wind** | Luminosity | Snow |
|---|---|---|---|---|---|---|---|
| 1778019403 | 17.22° C | 69% | 1015.6 hPa | 0 mm | 0.45 m/s, 96° | 308 W/m² | - |
| 1778019099 | 17.22° C | 69% | 1015.6 hPa | 0 mm | 0 m/s | 284 W/m² | - |
| 1778018797 | 17.22° C | 68% | 1015.7 hPa | 0 mm | 0.45 m/s, 80° | 237 W/m² | - |
| 1778018495 | 17.22° C | 69% | 1016 hPa | 0 mm | 0.89 m/s, 109° | 205 W/m² | - |
| 1778018192 | 17.22° C | 70% | 1015.7 hPa | 0 mm | 0.45 m/s, 95° | 205 W/m² | - |
| 1778017890 | 17.22° C | 69% | 1015.7 hPa | 0 mm | 1.34 m/s, 93° | 204 W/m² | - |
| 1778017588 | 17.22° C | 69% | 1015.5 hPa | 0 mm | 1.34 m/s, 184° | 190 W/m² | - |
| 1778017285 | 17.22° C | 69% | 1015.8 hPa | 0 mm | 0 m/s | 204 W/m² | - |
| 1778016982 | 17.22° C | 70% | 1015.7 hPa | 0 mm | 0 m/s | 212 W/m² | - |
| 1778016679 | 17.22° C | 69% | 1015.7 hPa | 0 mm | 0.45 m/s, 105° | 207 W/m² | - |
| 1778016375 | 17.22° C | 70% | 1015.8 hPa | 0 mm | 0 m/s | 189 W/m² | - |
| 1778016073 | 17.22° C | 69% | 1016 hPa | 0 mm | 0.45 m/s, 90° | 211 W/m² | - |
| 1778015769 | 17.22° C | 69% | 1016.1 hPa | 0 mm | 0 m/s | 240 W/m² | - |
| 1778015467 | 17.22° C | 69% | 1016 hPa | 0 mm | 0 m/s | 238 W/m² | - |
| 1778015163 | 17.22° C | 69% | 1016 hPa | 0 mm | 0 m/s | 243 W/m² | - |
| 1778014860 | 17.22° C | 69% | 1015.9 hPa | 0 mm | 0.45 m/s, 115° | 216 W/m² | - |
| 1778014558 | 17.78° C | 68% | 1015.9 hPa | 0 mm | 0.89 m/s, 168° | 248 W/m² | - |
| 1778014255 | 17.78° C | 67% | 1016 hPa | 0 mm | 0.89 m/s, 116° | 289 W/m² | - |
| 1778013952 | 17.78° C | 68% | 1016.1 hPa | 0 mm | 0 m/s | 318 W/m² | - |
| 1778013649 | 17.22° C | 69% | 1015.9 hPa | 0 mm | 0 m/s | 434 W/m² | - |
| 1778013346 | 17.22° C | 72% | 1016.1 hPa | 0 mm | 0 m/s | 328 W/m² | - |
| 1778013043 | 16.67° C | 69% | 1016.1 hPa | 0 mm | 0.89 m/s, 120° | 290 W/m² | - |
| 1778012739 | 16.67° C | 71% | 1016.1 hPa | 0 mm | 0 m/s | 219 W/m² | - |
| 1778012435 | 16.67° C | 72% | 1016 hPa | 0 mm | 0.45 m/s, 93° | 213 W/m² | - |
| 1778012132 | 16.67° C | 71% | 1016 hPa | 0 mm | 0.45 m/s, 179° | 199 W/m² | - |
* Rain latest hour (hover to see other rain measurements)
** Current wind speed in m/s (hover to see current wind gust speed)